When you browse on this site, cookies collect data to enhance your experience and personalize the content and advertising you see.
Visit our Privacy Policy to learn more. By continuing to use the site, you agree to this use of cookies and data.
  • In Sweden
  • List of Countries
  • For 7 days
  • Water Temperature
  • Weather Map
  • Weather Widgets
  • user-avatar
    Login

    Hourly Weather Francistown

    Today, 12 November, Tuesday

    Time Temperature Precipitation Wind Pressure Humidity
    00:00 +25°C° 0 mm 2 mps 675 mmHg 66%
    01:00 +24°C° 0 mm 2 mps 675 mmHg 66%
    02:00 +22°C° 0 mm 0 mps 675 mmHg 66%
    03:00 +24°C° 0 mm 1 mps 675 mmHg 68%
    04:00 +24°C° 0 mm 2 mps 674 mmHg 71%
    05:00 +22°C° 0 mm 3 mps 674 mmHg 74%
    06:00 +24°C° 0 mm 3 mps 674 mmHg 71%
    07:00 +25°C° 0 mm 3 mps 675 mmHg 68%
    08:00 +25°C° 0 mm 4 mps 676 mmHg 66%
    09:00 +27°C° 0 mm 4 mps 676 mmHg 59%
    10:00 +29°C° 0 mm 4 mps 676 mmHg 52%
    11:00 +32°C° 0 mm 4 mps 676 mmHg 45%
    12:00 +32°C° 0.1 mm 4 mps 675 mmHg 43%
    13:00 +33°C° 0.1 mm 3 mps 675 mmHg 41%
    14:00 +34°C° 0.1 mm 3 mps 675 mmHg 39%
    15:00 +33°C° 0.1 mm 4 mps 674 mmHg 43%
    16:00 +32°C° 0.1 mm 5 mps 673 mmHg 46%
    17:00 +30°C° 0.1 mm 6 mps 672 mmHg 50%
    18:00 +29°C° 0.3 mm 5 mps 673 mmHg 54%
    19:00 +28°C° 0.3 mm 5 mps 673 mmHg 59%
    20:00 +27°C° 0.3 mm 5 mps 674 mmHg 63%
    21:00 +27°C° 0.5 mm 5 mps 674 mmHg 66%
    22:00 +26°C° 0.5 mm 5 mps 674 mmHg 69%
    23:00 +25°C° 0.5 mm 4 mps 675 mmHg 72%

    Tomorrow, 13 November, Wednesday

    Time Temperature Precipitation Wind Pressure Humidity
    00:00 +25°C° 0 mm 4 mps 674 mmHg 74%
    01:00 +25°C° 0 mm 3 mps 674 mmHg 77%
    02:00 +24°C° 0 mm 3 mps 674 mmHg 79%
    03:00 +24°C° 0 mm 3 mps 674 mmHg 80%
    04:00 +22°C° 0 mm 3 mps 674 mmHg 82%
    05:00 +22°C° 0 mm 4 mps 674 mmHg 83%
    06:00 +23°C° 0 mm 4 mps 675 mmHg 78%
    07:00 +25°C° 0 mm 3 mps 675 mmHg 74%
    08:00 +26°C° 0 mm 3 mps 676 mmHg 69%
    09:00 +27°C° 0 mm 3 mps 676 mmHg 62%
    10:00 +29°C° 0 mm 3 mps 676 mmHg 55%
    11:00 +30°C° 0 mm 3 mps 676 mmHg 48%
    12:00 +31°C° 0 mm 3 mps 676 mmHg 45%
    13:00 +33°C° 0 mm 3 mps 675 mmHg 43%
    14:00 +34°C° 0 mm 2 mps 675 mmHg 40%
    15:00 +31°C° 1.4 mm 3 mps 674 mmHg 49%
    16:00 +29°C° 1.4 mm 4 mps 673 mmHg 58%
    17:00 +27°C° 1.4 mm 5 mps 672 mmHg 67%
    18:00 +26°C° 1.8 mm 4 mps 673 mmHg 69%
    19:00 +26°C° 1.8 mm 3 mps 674 mmHg 71%
    20:00 +25°C° 1.8 mm 2 mps 674 mmHg 73%
    21:00 +25°C° 0.3 mm 2 mps 674 mmHg 74%
    22:00 +24°C° 0.3 mm 1 mps 675 mmHg 75%
    23:00 +21°C° 0.3 mm 0 mps 675 mmHg 77%

    Day after tomorrow, 14 November, Thursday

    Time Temperature Precipitation Wind Pressure Humidity
    00:00 +21°C° 0.1 mm 0 mps 675 mmHg 77%
    01:00 +23°C° 0.1 mm 1 mps 674 mmHg 77%
    02:00 +23°C° 0.1 mm 1 mps 674 mmHg 78%
    03:00 +23°C° 0 mm 1 mps 674 mmHg 78%
    04:00 +23°C° 0 mm 1 mps 674 mmHg 78%
    05:00 +23°C° 0 mm 2 mps 674 mmHg 78%
    06:00 +25°C° 0 mm 2 mps 674 mmHg 71%
    07:00 +26°C° 0 mm 3 mps 675 mmHg 63%
    08:00 +28°C° 0 mm 4 mps 676 mmHg 56%
    09:00 +29°C° 0 mm 4 mps 676 mmHg 51%
    10:00 +32°C° 0 mm 5 mps 675 mmHg 45%
    11:00 +34°C° 0 mm 5 mps 675 mmHg 40%
    12:00 +34°C° 0 mm 5 mps 675 mmHg 39%
    13:00 +34°C° 0 mm 5 mps 674 mmHg 39%
    14:00 +34°C° 0 mm 5 mps 673 mmHg 39%
    15:00 +34°C° 0 mm 5 mps 673 mmHg 38%
    16:00 +34°C° 0 mm 4 mps 672 mmHg 37%
    17:00 +34°C° 0 mm 4 mps 672 mmHg 36%
    18:00 +33°C° 0 mm 4 mps 672 mmHg 38%
    19:00 +31°C° 0 mm 3 mps 672 mmHg 40%
    20:00 +30°C° 0 mm 3 mps 672 mmHg 42%
    21:00 +29°C° 0 mm 3 mps 672 mmHg 47%
    22:00 +28°C° 0 mm 4 mps 673 mmHg 52%
    23:00 +27°C° 0 mm 4 mps 673 mmHg 58%

    15 November, Friday

    Time Temperature Precipitation Wind Pressure Humidity
    00:00 +26°C° 0 mm 3 mps 672 mmHg 62%
    01:00 +25°C° 0 mm 3 mps 672 mmHg 67%
    02:00 +25°C° 0 mm 2 mps 672 mmHg 72%
    03:00 +24°C° 0 mm 2 mps 672 mmHg 74%
    04:00 +24°C° 0 mm 2 mps 672 mmHg 76%
    05:00 +24°C° 0 mm 2 mps 672 mmHg 78%
    06:00 +25°C° 0 mm 2 mps 672 mmHg 70%
    07:00 +27°C° 0 mm 2 mps 673 mmHg 62%
    08:00 +29°C° 0 mm 3 mps 674 mmHg 54%
    09:00 +31°C° 0 mm 3 mps 674 mmHg 43%
    10:00 +35°C° 0 mm 4 mps 673 mmHg 32%
    11:00 +37°C° 0 mm 5 mps 673 mmHg 21%
    12:00 +39°C° 0 mm 5 mps 673 mmHg 18%
    13:00 +40°C° 0 mm 6 mps 672 mmHg 15%
    14:00 +41°C° 0 mm 6 mps 672 mmHg 11%
    15:00 +40°C° 0 mm 6 mps 671 mmHg 10%
    16:00 +39°C° 0 mm 6 mps 671 mmHg 9%
    17:00 +39°C° 0 mm 5 mps 671 mmHg 8%
    18:00 +35°C° 0 mm 5 mps 671 mmHg 13%
    19:00 +33°C° 0 mm 5 mps 671 mmHg 17%
    20:00 +29°C° 0 mm 4 mps 671 mmHg 22%
    21:00 +28°C° 0 mm 5 mps 672 mmHg 35%
    22:00 +27°C° 0 mm 6 mps 672 mmHg 48%
    23:00 +26°C° 0 mm 7 mps 672 mmHg 62%

    16 November, Saturday

    Time Temperature Precipitation Wind Pressure Humidity
    00:00 +26°C° 0 mm 7 mps 672 mmHg 65%
    01:00 +24°C° 0 mm 7 mps 672 mmHg 69%
    02:00 +23°C° 0 mm 7 mps 672 mmHg 72%
    03:00 +23°C° 0 mm 7 mps 672 mmHg 73%
    04:00 +22°C° 0 mm 6 mps 672 mmHg 74%
    05:00 +22°C° 0 mm 6 mps 672 mmHg 74%
    06:00 +23°C° 0 mm 6 mps 672 mmHg 70%
    07:00 +24°C° 0 mm 6 mps 673 mmHg 66%
    08:00 +26°C° 0 mm 5 mps 673 mmHg 62%
    09:00 +28°C° 0 mm 5 mps 673 mmHg 54%
    10:00 +30°C° 0 mm 4 mps 673 mmHg 46%
    11:00 +33°C° 0 mm 3 mps 674 mmHg 39%
    12:00 +34°C° 0 mm 3 mps 673 mmHg 33%
    13:00 +35°C° 0 mm 3 mps 672 mmHg 28%
    14:00 +36°C° 0 mm 3 mps 672 mmHg 22%
    15:00 +36°C° 0 mm 4 mps 672 mmHg 23%
    16:00 +35°C° 0 mm 5 mps 671 mmHg 25%
    17:00 +35°C° 0 mm 5 mps 671 mmHg 26%
    18:00 +33°C° 0 mm 5 mps 671 mmHg 31%
    19:00 +32°C° 0 mm 6 mps 672 mmHg 35%
    20:00 +29°C° 0 mm 6 mps 672 mmHg 39%
    21:00 +28°C° 0 mm 5 mps 672 mmHg 41%
    22:00 +28°C° 0 mm 5 mps 672 mmHg 43%
    23:00 +27°C° 0 mm 5 mps 673 mmHg 46%

    17 November, Sunday

    Time Temperature Precipitation Wind Pressure Humidity
    00:00 +27°C° 0 mm 5 mps 672 mmHg 49%
    01:00 +26°C° 0 mm 5 mps 672 mmHg 52%
    02:00 +25°C° 0 mm 5 mps 672 mmHg 55%
    03:00 +25°C° 0 mm 5 mps 672 mmHg 57%
    04:00 +23°C° 0 mm 5 mps 672 mmHg 58%
    05:00 +23°C° 0 mm 4 mps 672 mmHg 59%
    06:00 +26°C° 0 mm 5 mps 672 mmHg 52%
    07:00 +27°C° 0 mm 5 mps 673 mmHg 46%
    08:00 +29°C° 0 mm 6 mps 674 mmHg 39%
    09:00 +32°C° 0 mm 5 mps 674 mmHg 33%
    10:00 +35°C° 0 mm 5 mps 674 mmHg 28%
    11:00 +37°C° 0 mm 5 mps 674 mmHg 22%
    12:00 +38°C° 0 mm 4 mps 674 mmHg 19%
    13:00 +40°C° 0 mm 4 mps 673 mmHg 16%
    14:00 +39°C° 0 mm 3 mps 673 mmHg 13%
    15:00 +40°C° 0 mm 4 mps 672 mmHg 13%
    16:00 +40°C° 0 mm 4 mps 672 mmHg 13%
    17:00 +40°C° 0 mm 4 mps 672 mmHg 13%
    18:00 +37°C° 0 mm 5 mps 672 mmHg 18%
    19:00 +34°C° 0 mm 6 mps 672 mmHg 22%
    20:00 +32°C° 0 mm 6 mps 672 mmHg 27%
    21:00 +30°C° 0 mm 6 mps 672 mmHg 31%
    22:00 +29°C° 0 mm 6 mps 673 mmHg 35%
    23:00 +28°C° 0 mm 6 mps 673 mmHg 40%
    Show more